Weather History for Red Bluff, CA

Change the Weather History Date:

Tuesday, September 10, 2013

  Actual Average Record
Temperature  
Mean Temperature 84 °F -  
Max Temperature 105 °F 91 °F 109 °F (1944)
Min Temperature 64 °F 60 °F 50 °F (1946)
Cooling Degree Days 20    
Growing Degree Days 34 (Base 50)    
Moisture  
Dew Point 43 °F    
Average Humidity 25    
Maximum Humidity 57    
Minimum Humidity 8    
Precipitation  
Precipitation 0.00 in - - ()
Sea Level Pressure  
Sea Level Pressure 29.70 in    
Wind  
Wind Speed 7 mph (SW)    
Max Wind Speed 16 mph    
Max Gust Speed 21 mph    
Visibility 10 miles    
Events      
Averages and records for this station are not official NWS values.
T = Trace of Precipitation, MM = Missing Value Source: NWS Daily Summary

Daily Weather History Graph

Daily Weather History Graph

Search for Another Location

Airport:

Trip Planner

Search our weather history database for the weather conditions in past years. The results will help you decide how hot, cold, wet, or windy it might be!

Date:

Astronomy

Sep. 10, 2013 Rise Set
Actual Time 6:45 AM PDT 7:25 PM PDT
Civil Twilight 6:18 AM PDT 7:52 PM PDT
Nautical Twilight 5:45 AM PDT 8:25 PM PDT
Astronomical Twilight 5:12 AM PDT 8:58 PM PDT
Moon 12:17 PM PDT (9/10) 10:32 PM PDT (9/10)
Length of Visible Light 13h 34m
Length of Day
12h 39m
Waxing Crescent, 29% of the Moon is Illuminated
Sep 10
Waxing Crescent
Sep 12
First Quarter
Sep 19
Full
Sep 26
Last Quarter
Oct 4
New

Hourly Weather History & Observations

Time (PDT) Temp. Heat Index Dew Point Humidity Pressure Visibility Wind Dir Wind Speed Gust Speed Precip Events Conditions
12:54 AM 78.1 °F - 37.0 °F 23% 29.67 in 10.0 mi NNW 5.8 mph - N/A   Clear
1:54 AM 77.0 °F - 37.0 °F 24% 29.68 in 10.0 mi NW 6.9 mph - N/A   Clear
2:54 AM 75.0 °F - 36.0 °F 24% 29.68 in 10.0 mi NW 8.1 mph - N/A   Clear
3:54 AM 70.0 °F - 36.0 °F 29% 29.69 in 10.0 mi NNW 5.8 mph - N/A   Clear
4:54 AM 69.1 °F - 36.0 °F 30% 29.69 in 10.0 mi NNW 3.5 mph - N/A   Clear
5:54 AM 69.1 °F - 37.9 °F 32% 29.70 in 10.0 mi NW 4.6 mph - N/A   Clear
6:54 AM 69.1 °F - 36.0 °F 30% 29.72 in 10.0 mi NNW 8.1 mph - N/A   Clear
7:54 AM 73.0 °F - 36.0 °F 26% 29.73 in 6.0 mi NW 5.8 mph - N/A   Haze
8:54 AM 81.0 °F - 37.9 °F 21% 29.73 in 7.0 mi North 3.5 mph - N/A   Clear
9:54 AM 89.1 °F - 37.9 °F 16% 29.74 in 10.0 mi NE 4.6 mph - N/A   Clear
10:54 AM 91.9 °F - 39.0 °F 16% 29.73 in 10.0 mi East 3.5 mph - N/A   Clear
11:54 AM 96.1 °F - 36.0 °F 12% 29.72 in 10.0 mi Calm Calm - N/A   Clear
12:54 PM 100.0 °F - 33.1 °F 10% 29.70 in 10.0 mi Variable 3.5 mph - N/A   Clear
1:54 PM 102.0 °F - 30.9 °F 8% 29.68 in 10.0 mi Calm Calm - N/A   Clear
2:54 PM 105.1 °F - 35.1 °F 9% 29.66 in 10.0 mi SSE 11.5 mph - N/A   Clear
3:54 PM 104.0 °F - 41.0 °F 12% 29.65 in 10.0 mi SSE 16.1 mph 20.7 mph N/A   Clear
4:54 PM 102.0 °F - 48.9 °F 17% 29.64 in 10.0 mi South 12.7 mph - N/A   Clear
5:54 PM 98.1 °F - 50.0 °F 20% 29.65 in 10.0 mi South 15.0 mph - N/A   Clear
6:54 PM 93.0 °F 90.6 °F 53.1 °F 26% 29.67 in 10.0 mi SSE 10.4 mph - N/A   Clear
7:54 PM 86.0 °F 85.4 °F 59.0 °F 40% 29.70 in 10.0 mi SSE 10.4 mph - N/A   Clear
8:54 PM 82.9 °F 83.2 °F 60.1 °F 46% 29.72 in 10.0 mi South 9.2 mph - N/A   Clear
9:54 PM 81.0 °F 80.8 °F 55.9 °F 42% 29.75 in 10.0 mi South 12.7 mph - N/A   Clear
10:54 PM 78.1 °F - 55.9 °F 46% 29.78 in 10.0 mi SSW 11.5 mph - N/A   Clear
11:54 PM 73.0 °F - 57.0 °F 57% 29.81 in 10.0 mi SSW 9.2 mph - N/A   Clear